Hourly Weather Roundup
Issued by NWS

Home | Current Version | Previous Version | Text Only | Print | Product List | Glossary On
Versions: 1 2 3 4 5 6 7 8 9 10 11 12 13 14 15 16 17 18 19 20 21 22 23 24 25 26 27 28 29 30 31 32 33 34 35 36 37 38 39 40 41 42 43 44 45 46 47 48 49 50
824
NZUS43 KILX 272010
HWRCRS

NWR Hourly Weather Roundup
National Weather Service Lincoln IL
300 PM CDT SAT MAY 27 2017


CITY           SKY/WX    TMP DP  RH WIND       PRES   REMARKS
Champaign      PTSUNNY   72  63  73 VRB5      29.89F
Lawrenceville  PTSUNNY   83  68  60 W6        29.85F HX  86
Peoria         SUNNY     77  62  59 E5        29.86F
Springfield    SUNNY     81  62  52 NE6       29.85F HX  82
$$


CITY           SKY/WX    TMP DP  RH WIND       PRES   REMARKS
Bloomington    SUNNY     78  62  57 SE7       29.87F HX  80
Danville       CLOUDY    69  62  79 NE5       29.86F
Decatur        SUNNY     75  65  70 NE8       29.87F
Effingham      CLOUDY    79  66  63 CALM      29.87F HX  81
Flora          PTSUNNY   83  66  56 CALM      29.85F HX  86
Galesburg      CLOUDY    74  62  64 SE5       29.85F
Jacksonville   SUNNY     77  64  63 CALM      29.87S
Lacon          MOSUNNY   75  64  69 NE6       29.85F
La Salle       CLOUDY    74  61  63 CALM      29.87F
Lincoln        SUNNY     81  62  53 CALM      29.86F HX  82
Litchfield     CLOUDY    74  62  65 CALM      29.87S HAZE

CITY           SKY/WX    TMP DP  RH WIND       PRES   REMARKS
Macomb         MOSUNNY   75  63  67 S3        29.89S
Mattoon        SUNNY     77  65  66 NE5       29.86F
Moline         CLOUDY    77  61  57 MISG      29.84F
Olney          MOSUNNY   82  68  61 NE5       29.85F HX  85
Paris          SUNNY     74  66  76 CALM      29.89F
Pontiac        MOSUNNY   76  66  70 CALM      29.87F
Quincy         CLOUDY    77  64  64 SE8       29.86F
Rantoul        PTSUNNY   73  64  73 E3        29.88F
Robinson       SUNNY     79  66  63 N5        29.87F HX  81
Taylorville    CLOUDY    77  63  62 E5        29.86F
Terre Haute    SUNNY     78  62  57 CALM      29.87F HX  80
$$


CITY           SKY/WX    TMP DP  RH WIND       PRES   REMARKS
Burlington     CLOUDY    72  65  78 S6        29.86F
Chicago        PTSUNNY   76  53  44 CALM      29.87F
Des Moines     CLOUDY    64  60  87 NE9       29.85R
Evansville     PTSUNNY   85  70  60 SW9       29.84F HX  89
Indianapolis   MOSUNNY   78  64  61 CALM      29.86F HX  80
Kansas City    PTSUNNY   69  62  78 SW9       29.83R
Milwaukee      PTSUNNY   69  54  58 SE12      29.89F
St Louis       TSTM      79  65  62 N8        29.86R HX  81
$$





USA.gov is the U.S. government's official web portal to all federal, state and local government web resources and services.